Torna al catalogo

DELTA 1 DEB

AttivoLEO
NORAD 2707·DEBRIS·🇺🇸 United States

Lanciato Jan 26, 1967 da Vandenberg Space Force Base

Loading…

Prossimi Passaggi (prossime 24 ore)

TLE

AggiornatoSource: Space-Track

Epoca: Sep 13, 2026, 17:27 UTC

1 02707U 67006D   26256.72744337 -.00000035  00000-0  60848-4 0  9992
2 02707 101.9058 231.8316 0148779 188.8117 348.4913 12.79411111783677

Traccia DELTA 1 DEB in tempo reale con AllMySat

Download on the App Store